Weather in Ust-Kara

Russia / Nenets Autonomous Okrug     69°14′39″N   64°55′15″E
temp.,
°C
wind,
m/s
gust,
m/s
humid.,
%
clouds,
%
prec.,
mm/h
press.,
hPa
HPBL,
m
1 march, mon
mon100:00−19ssw7119299 0.1 1010333
03:00−20ssw6119190 0.1 1008214
06:00−20ssw7129263 0.0 1006261
09:00−17s7148874 0.0 1003380
12:00−14s81387100 0.0 1000489
15:00−14sse61288100 0.0 998416
18:00−13sse71194100 0.3 995394
21:00−12se6995100 1.0 993292
2 march, tue
tue200:00−12sse51095100 0.8 991360
03:00−13s51094100 1.4 990379
06:00−14se6995100 1.3 989348
09:00−12sse71293100 2.4 989629
12:00−11sse71193100 1.5 989548
15:00−10sse71094100 2.4 990398
18:00−11sse5894100 0.7 991293
21:00−13se5795100 1.1 992173
3 march, wed
wed300:00−13se5795100 0.2 993155
03:00−15ese6894100 0.3 994178
06:00−16ese61093100 0.1 994288
09:00−15ese81292100 0.1 995469
12:00−15ese81391100 0.0 995452
15:00−15e71291100 0.1 996440
18:00−15e71292100 0.0 996404
21:00−16e81293100 0.1 996420
4 march, thu
thu400:00−16e81294100 0.1 996374
03:00−17e71194100 0.3 996353
06:00−16e71194100 0.1 996372
09:00−16e71092100 0.3 996517
12:00−15e71092100 0.1 996519
15:00−15e6994100 0.3 996418
18:00−15ene6995100 0.3 996323
21:00−15ene61094100 0.4 996306
5 march, fri
fri500:00−15ene6995100 0.1 995305
03:00−16ene6995100 0.3 995255
06:00−16ene5995100 0.1 996267
09:00−15ene5795100 0.4 996343
12:00−15e5793100 0.3 997404
15:00−16e4695100 0.4 998280
18:00−17e4696100 0.2 999217
21:00−19e3496100 0.3 999107